W1EZY Weather Reports


Display with metric or nautical units.
time (UTC)temp
F
wind
direction
speed
MPH
gust
MPH
rain 1hr
in
rain 24hr
in
rain mn
in
humidity
%
barometer
mb
20260507025529 56 200 0.0 3.0 0.00 0.12 0.12 95 1006.3
20260507024049 56 219 0.0 3.0 0.00 0.12 0.12 95 1006.2
20260507022531 56 201 0.0 1.0 0.00 0.12 0.12 95 1006.1
20260507021032 56 204 1.0 9.0 0.00 0.12 0.12 95 1006.5
20260507015514 56 219 0.0 7.0 0.00 0.12 0.12 95 1006.7
20260507014016 56 197 0.0 6.0 0.00 0.12 0.12 95 1006.7
20260507012516 56 234 1.0 5.0 0.01 0.12 0.12 94 1006.9
20260507011019 56 251 1.0 10.0 0.01 0.12 0.12 95 1007.1
20260507005519 57 222 0.0 11.0 0.01 0.12 0.12 94 1007.1
20260507004023 57 117 0.0 6.0 0.02 0.12 0.12 94 1006.9
20260507002522 57 238 0.0 9.0 0.03 0.11 0.11 94 1006.9
20260507001026 57 196 1.0 7.0 0.04 0.11 0.11 94 1007.1
20260506235525 58 244 4.0 14.0 0.05 0.11 0.11 94 1007.0
20260506234030 58 209 1.0 9.0 0.07 0.10 0.10 94 1006.9
20260506232529 57 211 1.0 7.0 0.06 0.08 0.08 94 1006.8
20260506231032 57 188 1.0 8.0 0.06 0.07 0.07 94 1006.7
20260506225532 58 252 2.0 12.0 0.06 0.06 0.06 93 1006.6
20260506224017 57 196 3.0 12.0 0.03 0.03 0.03 93 1006.9
20260506222516 57 244 2.0 12.0 0.02 0.02 0.02 92 1007.1
20260506221020 58 207 2.0 15.0 0.01 0.01 0.01 91 1007.5
20260506215519 58 223 1.0 18.0 0.00 0.00 0.00 89 1007.6
20260506214020 59 219 1.0 6.0 0.00 0.00 0.00 88 1007.5
20260506212521 60 180 1.0 11.0 0.00 0.00 0.00 87 1007.6
20260506211021 60 162 0.0 8.0 0.00 0.00 0.00 87 1007.7
20260506205525 60 178 1.0 13.0 0.00 0.00 0.00 85 1007.8
20260506204027 60 221 1.0 10.0 0.00 0.00 0.00 86 1007.9
20260506202529 60 232 3.0 15.0 0.00 0.00 0.00 85 1007.9
20260506201030 60 199 0.0 5.0 0.00 0.00 0.00 85 1008.2
20260506195514 60 254 2.0 24.0 0.00 0.00 0.00 83 1008.4
20260506194054 61 193 5.0 22.0 0.00 0.00 0.00 80 1008.5
20260506192515 62 213 4.0 19.0 0.00 0.00 0.00 79 1008.6
20260506191015 62 215 4.0 18.0 0.00 0.00 0.00 79 1008.7
20260506185519 62 179 2.0 15.0 0.00 0.00 0.00 78 1008.7
20260506184019 63 218 5.0 23.0 0.00 0.00 0.00 77 1008.7
20260506182518 63 165 3.0 15.0 0.00 0.00 0.00 78 1009.1
20260506181022 63 238 4.0 22.0 0.00 0.00 0.00 78 1009.3
20260506175521 63 215 4.0 17.0 0.00 0.00 0.00 77 1009.6
20260506174026 64 208 5.0 28.0 0.00 0.00 0.00 76 1010.0
20260506172525 64 251 2.0 19.0 0.00 0.00 0.00 77 1009.7
20260506171030 64 269 2.0 19.0 0.00 0.00 0.00 77 1009.8
20260506165528 63 207 4.0 20.0 0.00 0.00 0.00 79 1010.2
20260506164031 62 236 1.0 25.0 0.00 0.00 0.00 80 1010.6
20260506162530 62 261 2.0 14.0 0.00 0.00 0.00 79 1010.5
20260506161014 64 198 6.0 20.0 0.00 0.00 0.00 76 1010.9
20260506155514 65 176 9.0 25.0 0.00 0.00 0.00 76 1010.9
20260506154018 64 228 1.0 22.0 0.00 0.00 0.00 78 1011.0
20260506152519 64 236 4.0 16.0 0.00 0.00 0.00 77 1011.1
20260506151024 64 249 9.0 37.0 0.00 0.00 0.00 77 1011.2
20260506145522 64 171 5.0 18.0 0.00 0.00 0.00 77 1011.0
20260506144023 63 232 4.0 20.0 0.00 0.00 0.00 79 1011.3
20260506142525 63 162 7.0 21.0 0.00 0.00 0.00 79 1011.1
20260506141025 63 219 4.0 11.0 0.00 0.00 0.00 78 1010.8
20260506135529 63 230 5.0 19.0 0.00 0.00 0.00 78 1011.0
20260506134030 63 233 3.0 18.0 0.00 0.00 0.00 79 1011.4
20260506132553 63 196 4.0 19.0 0.00 0.00 0.00 79 1011.4
20260506131033 62 234 2.0 14.0 0.00 0.00 0.00 79 1011.2
20260506125516 62 238 4.0 19.0 0.00 0.00 0.00 81 1011.2
20260506124016 61 219 3.0 17.0 0.00 0.00 0.00 81 1011.2
20260506122520 61 184 0.0 16.0 0.00 0.00 0.00 83 1011.4
20260506121019 61 184 0.0 12.0 0.00 0.00 0.00 83 1011.3
20260506115522 60 226 1.0 12.0 0.00 0.00 0.00 85 1011.7
20260506114023 59 200 2.0 12.0 0.00 0.00 0.00 86 1011.7
20260506112523 58 184 0.0 5.0 0.00 0.00 0.00 87 1011.7
20260506111027 58 215 1.0 9.0 0.00 0.00 0.00 87 1011.7
20260506105527 58 186 3.0 10.0 0.00 0.00 0.00 88 1011.6
20260506104030 57 178 0.0 9.0 0.00 0.00 0.00 89 1011.8
20260506102529 57 232 0.0 13.0 0.00 0.00 0.00 89 1011.6
20260506101033 57 163 0.0 15.0 0.00 0.00 0.00 89 1011.5
20260506095532 57 175 1.0 10.0 0.00 0.00 0.00 89 1011.4
20260506094017 57 202 0.0 10.0 0.00 0.00 0.00 89 1011.6
20260506092516 57 188 0.0 13.0 0.00 0.00 0.00 89 1011.5
20260506091019 58 204 1.0 14.0 0.00 0.00 0.00 89 1011.6
20260506085518 58 222 0.0 12.0 0.00 0.00 0.00 89 1011.8
20260506084023 58 204 3.0 15.0 0.00 0.00 0.00 89 1011.7
20260506082522 58 209 0.0 8.0 0.00 0.00 0.00 89 1011.8
20260506081026 58 218 1.0 15.0 0.00 0.00 0.00 90 1011.7
20260506072529 56 238 2.0 11.0 0.00 0.00 0.00 90 1011.7
20260506071049 56 194 2.0 11.0 0.00 0.00 0.00 89 1011.7
20260506062513 57 224 0.0 14.0 0.00 0.00 0.00 87 1011.5
20260506061054 57 203 0.0 8.0 0.00 0.00 0.00 87 1011.6
20260506051019 58 199 1.0 14.0 0.00 0.00 0.00 86 1012.1
20260506044042 57 201 1.0 10.0 0.00 0.00 0.00 86 1012.1
20260506042541 57 186 1.0 8.0 0.00 0.00 0.00 86 1012.0
20260506041025 57 217 3.0 11.0 0.00 0.00 0.00 86 1012.1
20260506035524 57 179 2.0 12.0 0.00 0.00 0.00 85 1012.1
20260506034024 57 183 2.0 11.0 0.00 0.00 0.00 85 1012.2
20260506032527 57 213 0.0 7.0 0.00 0.00 0.00 85 1012.0
20260506031027 57 78 1.0 9.0 0.00 0.00 0.00 84 1012.0